CST,Max TemperatureF,Mean TemperatureF,Min TemperatureF,Max Dew PointF,MeanDew PointF,Min DewpointF,Max Humidity, Mean Humidity, Min Humidity, Max Sea Level PressureIn, Mean Sea Level PressureIn, Min Sea Level PressureIn, Max VisibilityMiles, Mean VisibilityMiles, Min VisibilityMiles, Max Wind SpeedMPH, Mean Wind SpeedMPH, Max Gust SpeedMPH,PrecipitationIn, CloudCover, Events, WindDirDegrees
2013-2-1,-2,-18,-34,-9,-23,-42,84,72,55,30.20,30.09,30.00,10,9,5,9,2,,0.00,4,Snow,175
2013-2-2,3,-10,-23,-2,-12,-31,85,79,61,30.12,30.03,29.93,10,8,1,14,3,,0.00,4,Snow,232
2013-2-3,8,-4,-16,-2,-8,-20,85,75,48,30.04,30.00,29.97,10,10,10,13,6,,0.00,4,Snow,320
2013-2-4,17,-2,-18,16,-3,-26,100,79,57,30.02,29.83,29.52,10,8,1,22,7,28,0.00,7,Snow,185
2013-2-5,19,8,-2,18,3,-6,100,80,53,30.01,29.86,29.52,10,9,4,16,9,22,0.00,6,Snow,327
2013-2-6,19,12,5,16,9,1,93,84,79,30.09,29.96,29.88,10,8,0,10,6,,0.02,8,Snow,93
2013-2-7,23,9,-5,18,6,-9,93,84,59,30.28,30.20,30.09,10,8,0,10,4,,0.00,4,Snow,32
2013-2-8,32,12,-9,19,5,-15,92,76,55,30.27,30.18,30.03,10,9,0,15,4,21,0.00,2,Fog,154
2013-2-9,28,22,15,27,22,12,93,90,79,30.03,29.92,29.87,10,5,2,16,8,20,0.00,8,,167
2013-2-10,26,24,21,25,23,19,100,93,86,29.87,29.66,29.50,7,2,0,29,11,33,0.16,8,Snow,39
2013-2-11,21,11,1,19,11,0,93,87,68,29.94,29.83,29.60,10,7,2,24,16,31,0.00,7,Snow,304
2013-2-12,24,17,10,19,14,9,93,85,68,29.89,29.77,29.70,10,10,10,18,12,20,0.00,5,Snow,197
2013-2-13,32,20,8,23,16,7,100,87,64,29.73,29.65,29.59,10,7,0,12,6,,0.00,3,Fog,202
2013-2-14,17,8,0,12,2,-2,93,80,53,30.21,30.02,29.74,10,10,5,13,7,16,0.00,2,Snow,330
2013-2-15,14,-1,-16,1,-7,-22,92,79,57,30.32,30.25,30.18,10,6,0,9,1,,0.00,4,Snow,224
2013-2-16,35,14,-7,25,5,-11,92,76,40,30.18,30.06,29.94,10,8,0,14,2,,0.00,5,Snow,167
2013-2-17,33,24,15,27,20,10,93,81,69,29.93,29.65,29.49,10,10,7,25,17,34,0.00,6,Snow,168
2013-2-18,28,13,-2,25,7,-8,100,83,67,30.01,29.70,29.45,10,3,0,29,15,40,0.04,8,Snow,309
2013-2-19,1,-11,-23,-8,-17,-27,85,71,51,30.43,30.25,30.02,10,8,2,22,15,29,0.00,2,Snow,331
2013-2-20,21,-1,-23,12,-10,-31,85,67,45,30.43,30.40,30.34,10,10,10,9,3,,0.00,0,,86
2013-2-21,28,14,0,12,-1,-13,73,57,42,30.40,30.30,30.16,10,10,10,9,6,,0.00,0,,107
2013-2-22,23,16,6,18,11,3,93,84,67,30.15,29.99,29.87,10,6,0,6,2,,0.00,6,Fog-Snow,54
2013-2-23,30,16,3,21,13,1,100,86,64,29.93,29.86,29.83,10,3,0,0,0,,0.00,8,Fog,-1
2013-2-24,28,14,1,19,8,-2,93,77,43,30.03,29.99,29.93,10,6,0,12,2,,0.00,4,Fog-Snow,198
2013-2-25,24,15,6,19,15,3,100,92,80,30.05,30.01,29.99,7,2,0,12,7,,0.00,6,Fog,197
2013-2-26,30,15,0,18,7,-4,92,80,59,30.05,30.02,29.98,10,6,0,5,1,,0.00,1,Fog-Snow,192
2013-2-27,26,14,1,21,11,-2,93,82,63,30.15,30.08,30.04,10,7,0,15,3,21,0.00,2,Fog-Snow,342
2013-2-28,24,20,17,19,14,10,86,74,59,30.28,30.23,30.15,10,10,10,13,8,20,0.00,7,,36